This demonstration page uses our WeatherBlox Daily Observations layout. Learn more.

Left ArrowRight Arrow

Hourly Observations for November 15, 2022

Temp ( °F °C ) Dew Point ( °F °C ) Humidity (%) Winds ( mph kmh ) Pressure ( in mb ) Visibility ( mi km ) Precip ( " mm )
12:56 am 00:56 Clear 22 -5.6 17 -8.3 81 81 WNW 7 11 30.28 1025 10 16 0.00 0.00
1:56 am 01:56 Mostly Cloudy 23 -5 18 -7.8 81 81 WNW 7 11 30.28 1025 10 16 0.00 0.00
2:56 am 02:56 Cloudy 24 -4.4 19 -7.2 81 81 NW 6 9 30.28 1025 10 16 0.00 0.00
3:56 am 03:56 Cloudy 25 -3.9 20 -6.7 81 81 WNW 8 13 30.29 1026 10 16 0.00 0.00
4:56 am 04:56 Cloudy 27 -2.8 21 -6.1 78 78 WNW 9 15 30.30 1026 10 16 0.00 0.00
5:56 am 05:56 Cloudy 28 -2.2 22 -5.6 77 77 NW 9 15 30.32 1027 9 14 0.01 0.13
6:56 am 06:56 Mostly Cloudy 28 -2.2 22 -5.6 77 77 NW 9 15 30.34 1027 10 16 0.01 0.13
7:56 am 07:56 Mostly Cloudy 27 -2.8 22 -5.6 81 81 NW 14 22 30.36 1028 10 16 0.00 0.00
8:56 am 08:56 Cloudy 29 -1.7 21 -6.1 72 72 NW 15 24 30.38 1029 10 16 0.00 0.00
9:56 am 09:56 Cloudy 28 -2.2 20 -6.7 71 71 NNW 16 26 30.42 1030 10 16 0.00 0.00
10:42 am 10:42 Partly Cloudy 30 -1 19 -7 64 64 NNW 18 30 30.43 1031 10 16 0.00 0.00
10:56 am 10:56 Mostly Sunny 31 -0.6 18 -7.8 58 58 NNW 21 33 30.40 1029 10 16 0.00 0.00
11:56 am 11:56 Sunny 34 1.1 14 -10 43 43 NNW 18 30 30.37 1028 10 16 0.00 0.00
12:56 pm 12:56 Mostly Sunny 36 2.2 13 -10.6 38 38 NW 13 20 30.35 1028 10 16 0.00 0.00
1:56 pm 13:56 Mostly Sunny 37 2.8 13 -10.6 36 36 WNW 15 24 30.34 1027 10 16 0.00 0.00
2:56 pm 14:56 Cloudy 36 2.2 16 -8.9 44 44 NW 9 15 30.34 1027 10 16 0.00 0.00
3:56 pm 15:56 Cloudy 37 2.8 18 -7.8 45 45 NNW 14 22 30.34 1027 10 16 0.00 0.00
4:56 pm 16:56 Cloudy 35 1.7 17 -8.3 47 47 NNW 10 17 30.34 1027 10 16 0.00 0.00
5:56 pm 17:56 Cloudy 34 1.1 18 -7.8 51 51 NNW 8 13 30.36 1028 10 16 0.00 0.00
6:56 pm 18:56 Cloudy 32 0 17 -8.3 53 53 NW 6 9 30.37 1029 10 16 0.00 0.00
7:56 pm 19:56 Cloudy with Light Wintry Mix 32 0 19 -7.2 58 58 NW 8 13 30.39 1029 10 16 0.01 0.13
8:56 pm 20:56 Cloudy 31 -0.6 19 -7.2 61 61 NNW 15 24 30.40 1029 10 16 0.01 0.13
9:45 pm 21:45 Cloudy 25 -4 18 -8 74 74 N 17 28 30.50 1033 10 16 0.01 0.13
9:56 pm 21:56 Cloudy 24 -4.4 13 -10.6 62 62 NNW 20 31 30.45 1031 10 16 0.01 0.13
10:56 pm 22:56 Cloudy 21 -6.1 11 -11.7 64 64 N 16 26 30.48 1032 10 16 0.00 0.00
11:56 pm 23:56 Clear 17 -8.3 11 -11.7 76 76 NNW 13 20 30.47 1032 10 16 0.00 0.00

Powered by AerisWeather